| time (UTC) | temp F | wind direction | speed knots | gust knots | rain 1hr in | rain 24hr in | rain mn in | humidity % | barometer mb |
| 20260503000833 | 53 | 148 | 0.0 | 0.0 | 0.00 | 0.00 | 0.00 | 61 | 1013.7 |
| 20260503000330 | 54 | 150 | 0.0 | 0.0 | 0.00 | 0.00 | 0.00 | 60 | 1013.6 |
| 20260502235827 | 54 | 146 | 0.0 | 0.0 | 0.00 | 0.00 | 0.00 | 59 | 1013.4 |
| 20260502235324 | 55 | 151 | 0.0 | 0.0 | 0.00 | 0.00 | 0.00 | 59 | 1013.3 |
| 20260502234821 | 55 | 150 | 0.0 | 0.0 | 0.00 | 0.00 | 0.00 | 58 | 1013.5 |
| 20260502234318 | 55 | 157 | 0.0 | 0.0 | 0.00 | 0.00 | 0.00 | 59 | 1013.4 |
| 20260502233814 | 55 | 157 | 0.0 | 0.0 | 0.00 | 0.00 | 0.00 | 57 | 1013.4 |
| 20260502233311 | 56 | 156 | 0.0 | 0.0 | 0.00 | 0.00 | 0.00 | 55 | 1013.3 |
| 20260502232808 | 56 | 156 | 0.0 | 0.0 | 0.00 | 0.00 | 0.00 | 54 | 1013.2 |
| 20260502232305 | 56 | 156 | 0.0 | 0.0 | 0.00 | 0.00 | 0.00 | 53 | 1013.0 |
| 20260502231800 | 57 | 158 | 0.0 | 0.0 | 0.00 | 0.00 | 0.00 | 52 | 1013.0 |
| 20260502231258 | 57 | 153 | 0.0 | 0.0 | 0.00 | 0.00 | 0.00 | 50 | 1012.9 |
| 20260502230756 | 57 | 165 | 0.0 | 0.0 | 0.00 | 0.00 | 0.00 | 50 | 1012.9 |
| 20260502230254 | 58 | 150 | 0.0 | 0.0 | 0.00 | 0.00 | 0.00 | 48 | 1012.9 |
| 20260502225750 | 58 | 156 | 0.0 | 0.0 | 0.00 | 0.00 | 0.00 | 49 | 1012.9 |
| 20260502225247 | 58 | 144 | 0.0 | 0.0 | 0.00 | 0.00 | 0.00 | 47 | 1012.6 |
| 20260502224744 | 59 | 183 | 0.9 | 2.6 | 0.00 | 0.00 | 0.00 | 45 | 1012.9 |
| 20260502224241 | 59 | 152 | 0.0 | 0.0 | 0.00 | 0.00 | 0.00 | 47 | 1012.8 |
| 20260502223738 | 59 | 147 | 0.0 | 0.0 | 0.00 | 0.00 | 0.00 | 48 | 1012.8 |
| 20260502223236 | 58 | 156 | 0.0 | 0.0 | 0.00 | 0.00 | 0.00 | 46 | 1012.6 |
| 20260502222734 | 58 | 158 | 0.0 | 0.9 | 0.00 | 0.00 | 0.00 | 48 | 1012.7 |
| 20260502222230 | 58 | 160 | 0.0 | 0.9 | 0.00 | 0.00 | 0.00 | 47 | 1012.8 |
| 20260502221726 | 58 | 12 | 1.7 | 2.6 | 0.00 | 0.00 | 0.00 | 44 | 1012.9 |
| 20260502221223 | 58 | 38 | 1.7 | 2.6 | 0.00 | 0.00 | 0.00 | 45 | 1013.0 |
| 20260502220719 | 59 | 142 | 0.9 | 0.9 | 0.00 | 0.00 | 0.00 | 45 | 1013.3 |
| 20260502220215 | 59 | 108 | 0.0 | 3.5 | 0.00 | 0.00 | 0.00 | 45 | 1013.1 |
| 20260502215712 | 59 | 123 | 3.5 | 6.1 | 0.00 | 0.00 | 0.00 | 44 | 1013.1 |
| 20260502215203 | 59 | 82 | 1.7 | 5.2 | 0.00 | 0.00 | 0.00 | 44 | 1013.1 |
| 20260502214701 | 59 | 145 | 0.0 | 3.5 | 0.00 | 0.00 | 0.00 | 46 | 1013.1 |
| 20260502214158 | 59 | 135 | 0.0 | 0.9 | 0.00 | 0.00 | 0.00 | 46 | 1013.2 |
| 20260502213655 | 59 | 138 | 1.7 | 5.2 | 0.00 | 0.00 | 0.00 | 44 | 1013.0 |
| 20260502213152 | 59 | 172 | 0.0 | 3.5 | 0.00 | 0.00 | 0.00 | 45 | 1013.0 |
| 20260502212651 | 59 | 277 | 3.5 | 3.5 | 0.00 | 0.00 | 0.00 | 44 | 1013.1 |
| 20260502212149 | 60 | 79 | 0.9 | 0.9 | 0.00 | 0.00 | 0.00 | 44 | 1013.0 |
| 20260502211644 | 60 | 170 | 0.0 | 2.6 | 0.00 | 0.00 | 0.00 | 46 | 1012.8 |
| 20260502211141 | 61 | 151 | 0.0 | 1.7 | 0.00 | 0.00 | 0.00 | 42 | 1012.9 |
| 20260502210638 | 62 | 183 | 0.0 | 2.6 | 0.00 | 0.00 | 0.00 | 41 | 1012.9 |
| 20260502210135 | 61 | 313 | 0.9 | 2.6 | 0.00 | 0.00 | 0.00 | 43 | 1012.9 |
| 20260502205632 | 61 | 186 | 0.9 | 3.5 | 0.00 | 0.00 | 0.00 | 43 | 1012.7 |
| 20260502205129 | 61 | 37 | 1.7 | 2.6 | 0.00 | 0.00 | 0.00 | 44 | 1012.8 |
| 20260502204626 | 59 | 184 | 0.0 | 1.7 | 0.00 | 0.00 | 0.00 | 45 | 1012.6 |
| 20260502204124 | 60 | 247 | 1.7 | 2.6 | 0.00 | 0.00 | 0.00 | 44 | 1012.8 |
| 20260502203621 | 60 | 116 | 0.0 | 2.6 | 0.00 | 0.00 | 0.00 | 45 | 1012.9 |
| 20260502203119 | 60 | 61 | 1.7 | 1.7 | 0.00 | 0.00 | 0.00 | 43 | 1013.0 |
| 20260502202613 | 60 | 153 | 0.0 | 0.9 | 0.00 | 0.00 | 0.00 | 43 | 1013.1 |
| 20260502202106 | 60 | 303 | 2.6 | 2.6 | 0.00 | 0.00 | 0.00 | 42 | 1013.0 |
| 20260502201602 | 60 | 163 | 0.0 | 2.6 | 0.00 | 0.00 | 0.00 | 42 | 1013.1 |
| 20260502201058 | 60 | 323 | 1.7 | 1.7 | 0.00 | 0.00 | 0.00 | 43 | 1013.0 |
| 20260502200554 | 60 | 192 | 0.0 | 0.9 | 0.00 | 0.00 | 0.00 | 43 | 1013.0 |
| 20260502200052 | 60 | 11 | 2.6 | 3.5 | 0.00 | 0.00 | 0.00 | 41 | 1013.0 |
| 20260502195550 | 61 | 149 | 0.9 | 1.7 | 0.00 | 0.00 | 0.00 | 42 | 1013.2 |
| 20260502195046 | 61 | 158 | 0.0 | 1.7 | 0.00 | 0.00 | 0.00 | 42 | 1013.0 |
| 20260502194543 | 60 | 170 | 0.9 | 1.7 | 0.00 | 0.00 | 0.00 | 45 | 1013.2 |
| 20260502194039 | 61 | 74 | 0.9 | 5.2 | 0.00 | 0.00 | 0.00 | 42 | 1013.2 |
| 20260502193536 | 61 | 78 | 1.7 | 6.1 | 0.00 | 0.00 | 0.00 | 42 | 1013.5 |
| 20260502193033 | 61 | 322 | 1.7 | 1.7 | 0.00 | 0.00 | 0.00 | 42 | 1013.5 |
| 20260502192528 | 61 | 334 | 2.6 | 5.2 | 0.00 | 0.00 | 0.00 | 42 | 1013.4 |
| 20260502192026 | 61 | 246 | 1.7 | 3.5 | 0.00 | 0.00 | 0.00 | 43 | 1013.6 |
| 20260502191523 | 60 | 160 | 0.0 | 7.0 | 0.00 | 0.00 | 0.00 | 45 | 1013.6 |
| 20260502191021 | 60 | 161 | 0.9 | 3.5 | 0.00 | 0.00 | 0.00 | 43 | 1013.7 |
| 20260502190518 | 59 | 147 | 1.7 | 1.7 | 0.00 | 0.00 | 0.00 | 43 | 1013.6 |
| 20260502190015 | 60 | 78 | 1.7 | 3.5 | 0.00 | 0.00 | 0.00 | 44 | 1013.8 |
| 20260502185510 | 60 | 107 | 0.9 | 1.7 | 0.00 | 0.00 | 0.00 | 45 | 1013.7 |
| 20260502185007 | 60 | 102 | 0.0 | 1.7 | 0.00 | 0.00 | 0.00 | 47 | 1014.0 |
| 20260502184503 | 60 | 73 | 2.6 | 5.2 | 0.00 | 0.00 | 0.00 | 44 | 1014.0 |
| 20260502183959 | 59 | 292 | 0.9 | 3.5 | 0.00 | 0.00 | 0.00 | 47 | 1014.1 |
| 20260502183455 | 58 | 120 | 1.7 | 2.6 | 0.00 | 0.00 | 0.00 | 46 | 1013.9 |
| 20260502182950 | 59 | 15 | 1.7 | 2.6 | 0.00 | 0.00 | 0.00 | 47 | 1014.1 |
| 20260502182446 | 58 | 86 | 1.7 | 5.2 | 0.00 | 0.00 | 0.00 | 48 | 1014.3 |
| 20260502181942 | 58 | 218 | 1.7 | 2.6 | 0.00 | 0.00 | 0.00 | 48 | 1014.3 |
| 20260502181440 | 59 | 26 | 1.7 | 7.0 | 0.00 | 0.00 | 0.00 | 46 | 1014.6 |
| 20260502180939 | 58 | 168 | 0.9 | 2.6 | 0.00 | 0.00 | 0.00 | 47 | 1014.6 |
| 20260502180436 | 58 | 320 | 4.3 | 5.2 | 0.00 | 0.00 | 0.00 | 46 | 1014.9 |
| 20260502170355 | 55 | 132 | 0.0 | 0.9 | 0.00 | 0.00 | 0.00 | 51 | 1015.7 |
| 20260502164342 | 55 | 168 | 0.9 | 2.6 | 0.00 | 0.00 | 0.00 | 51 | 1015.5 |
| 20260502163838 | 55 | 14 | 2.6 | 5.2 | 0.00 | 0.00 | 0.00 | 50 | 1015.6 |
| 20260502163334 | 55 | 156 | 0.9 | 6.1 | 0.00 | 0.00 | 0.00 | 51 | 1015.7 |
| 20260502162832 | 55 | 159 | 0.0 | 2.6 | 0.00 | 0.00 | 0.00 | 54 | 1015.8 |
| 20260502162329 | 54 | 91 | 1.7 | 7.0 | 0.00 | 0.00 | 0.00 | 51 | 1015.6 |
| 20260502161826 | 55 | 140 | 3.5 | 5.2 | 0.00 | 0.00 | 0.00 | 53 | 1015.7 |
| 20260502161321 | 54 | 326 | 0.9 | 3.5 | 0.00 | 0.00 | 0.00 | 54 | 1015.7 |
| 20260502160819 | 54 | 26 | 1.7 | 3.5 | 0.00 | 0.00 | 0.00 | 53 | 1015.6 |
| 20260502160312 | 55 | 317 | 0.9 | 2.6 | 0.00 | 0.00 | 0.00 | 54 | 1015.8 |
| 20260502152242 | 55 | 184 | 0.9 | 1.7 | 0.00 | 0.00 | 0.00 | 56 | 1015.9 |
| 20260502151739 | 54 | 101 | 0.9 | 7.0 | 0.00 | 0.00 | 0.00 | 57 | 1015.7 |
| 20260502151236 | 54 | 343 | 3.5 | 6.1 | 0.00 | 0.00 | 0.00 | 57 | 1015.9 |
| 20260502150733 | 54 | 168 | 1.7 | 6.1 | 0.00 | 0.00 | 0.00 | 57 | 1016.1 |
| 20260502150230 | 54 | 119 | 1.7 | 1.7 | 0.00 | 0.00 | 0.00 | 58 | 1016.0 |
| 20260502130619 | 53 | 187 | 0.9 | 6.1 | 0.00 | 0.00 | 0.00 | 68 | 1015.5 |
| 20260502130116 | 53 | 139 | 0.0 | 1.7 | 0.00 | 0.00 | 0.00 | 69 | 1015.4 |
| 20260502123602 | 52 | 329 | 3.5 | 7.0 | 0.00 | 0.00 | 0.00 | 71 | 1015.4 |
| 20260502123058 | 52 | 262 | 0.9 | 3.5 | 0.00 | 0.00 | 0.00 | 73 | 1015.2 |
| 20260502122555 | 51 | 207 | 1.7 | 7.0 | 0.00 | 0.00 | 0.00 | 74 | 1015.1 |
| 20260502122052 | 52 | 149 | 0.9 | 3.5 | 0.00 | 0.00 | 0.00 | 76 | 1015.1 |
| 20260502121549 | 51 | 32 | 3.5 | 5.2 | 0.00 | 0.00 | 0.00 | 75 | 1015.0 |
| 20260502121047 | 51 | 124 | 4.3 | 7.8 | 0.00 | 0.00 | 0.00 | 75 | 1014.9 |
| 20260502120543 | 51 | 170 | 3.5 | 3.5 | 0.00 | 0.00 | 0.00 | 77 | 1014.9 |
| 20260502115538 | 51 | 315 | 1.7 | 2.6 | 0.00 | 0.00 | 0.00 | 80 | 1014.9 |
| 20260502115033 | 51 | 132 | 0.9 | 2.6 | 0.00 | 0.00 | 0.00 | 81 | 1014.9 |
| 20260502114530 | 51 | 25 | 1.7 | 3.5 | 0.00 | 0.00 | 0.00 | 82 | 1015.0 |
| 20260502114027 | 51 | 132 | 0.9 | 3.5 | 0.00 | 0.00 | 0.00 | 83 | 1015.1 |
| 20260502113525 | 51 | 327 | 1.7 | 2.6 | 0.00 | 0.00 | 0.00 | 83 | 1015.1 |
| 20260502113024 | 51 | 53 | 0.9 | 1.7 | 0.00 | 0.00 | 0.00 | 84 | 1015.2 |
| 20260502112521 | 51 | 173 | 0.0 | 2.6 | 0.00 | 0.00 | 0.00 | 85 | 1015.0 |
| 20260502112018 | 51 | 26 | 1.7 | 2.6 | 0.00 | 0.00 | 0.00 | 85 | 1015.0 |
| 20260502111515 | 50 | 140 | 0.9 | 0.9 | 0.00 | 0.00 | 0.00 | 85 | 1015.1 |
| 20260502111013 | 50 | 146 | 0.0 | 2.6 | 0.00 | 0.00 | 0.00 | 86 | 1015.1 |
| 20260502110510 | 50 | 147 | 0.0 | 1.7 | 0.00 | 0.00 | 0.00 | 86 | 1015.1 |
| 20260502110008 | 50 | 144 | 0.0 | 0.9 | 0.00 | 0.00 | 0.00 | 87 | 1015.1 |
| 20260502105505 | 50 | 147 | 0.0 | 0.9 | 0.00 | 0.00 | 0.00 | 87 | 1015.0 |
| 20260502105002 | 50 | 151 | 0.0 | 0.0 | 0.00 | 0.00 | 0.00 | 87 | 1014.9 |
| 20260502104459 | 50 | 151 | 0.0 | 0.0 | 0.00 | 0.00 | 0.00 | 87 | 1014.7 |
| 20260502103956 | 50 | 159 | 0.0 | 2.6 | 0.00 | 0.00 | 0.00 | 88 | 1014.8 |
| 20260502103454 | 50 | 175 | 0.0 | 0.9 | 0.00 | 0.00 | 0.00 | 88 | 1015.0 |
| 20260502102951 | 50 | 157 | 0.0 | 0.0 | 0.00 | 0.00 | 0.00 | 89 | 1014.8 |
| 20260502102448 | 50 | 158 | 0.0 | 0.0 | 0.00 | 0.00 | 0.00 | 89 | 1014.6 |
| 20260502101944 | 49 | 158 | 0.0 | 0.0 | 0.00 | 0.00 | 0.00 | 89 | 1014.7 |
| 20260502101443 | 49 | 150 | 0.0 | 0.0 | 0.00 | 0.00 | 0.00 | 89 | 1014.5 |
| 20260502100941 | 49 | 149 | 0.0 | 0.0 | 0.00 | 0.00 | 0.00 | 89 | 1014.3 |
| 20260502100439 | 49 | 117 | 0.0 | 0.0 | 0.00 | 0.00 | 0.00 | 89 | 1014.3 |
| 20260502091414 | 48 | 131 | 0.0 | 0.0 | 0.00 | 0.00 | 0.00 | 95 | 1014.0 |
| 20260502090910 | 48 | 132 | 0.0 | 0.0 | 0.00 | 0.00 | 0.00 | 94 | 1014.2 |
| 20260502090408 | 48 | 149 | 0.0 | 0.0 | 0.00 | 0.00 | 0.00 | 94 | 1014.1 |
| 20260502071257 | 49 | 149 | 0.0 | 0.0 | 0.00 | 0.00 | 0.00 | 89 | 1013.7 |
| 20260502070755 | 49 | 151 | 0.0 | 0.0 | 0.00 | 0.00 | 0.00 | 89 | 1013.8 |
| 20260502070252 | 50 | 150 | 0.0 | 0.0 | 0.00 | 0.00 | 0.00 | 89 | 1013.7 |
| 20260502065751 | 50 | 141 | 0.0 | 0.0 | 0.00 | 0.00 | 0.00 | 88 | 1013.7 |
| 20260502065249 | 50 | 154 | 0.0 | 0.0 | 0.00 | 0.00 | 0.00 | 88 | 1013.6 |
| 20260502064747 | 50 | 165 | 0.0 | 0.0 | 0.00 | 0.00 | 0.00 | 87 | 1013.6 |
| 20260502064244 | 51 | 135 | 0.0 | 0.9 | 0.00 | 0.00 | 0.00 | 87 | 1013.4 |
| 20260502063741 | 51 | 155 | 0.0 | 0.0 | 0.00 | 0.00 | 0.00 | 86 | 1013.8 |
| 20260502063239 | 51 | 144 | 0.0 | 0.0 | 0.00 | 0.00 | 0.00 | 85 | 1013.7 |
| 20260502062736 | 51 | 145 | 0.0 | 0.0 | 0.00 | 0.00 | 0.00 | 85 | 1013.6 |
| 20260502062234 | 51 | 149 | 0.0 | 0.0 | 0.00 | 0.00 | 0.00 | 84 | 1013.8 |
| 20260502061732 | 52 | 141 | 0.0 | 0.9 | 0.00 | 0.00 | 0.00 | 84 | 1013.9 |
| 20260502061230 | 52 | 151 | 0.0 | 0.0 | 0.00 | 0.00 | 0.00 | 84 | 1014.0 |
| 20260502060724 | 52 | 156 | 0.0 | 0.9 | 0.00 | 0.00 | 0.00 | 83 | 1013.9 |
| 20260502060221 | 52 | 160 | 0.0 | 0.0 | 0.00 | 0.00 | 0.00 | 82 | 1013.7 |
| 20260502055719 | 53 | 152 | 0.0 | 0.0 | 0.00 | 0.00 | 0.00 | 81 | 1013.8 |
| 20260502055216 | 53 | 166 | 0.0 | 0.9 | 0.00 | 0.00 | 0.00 | 80 | 1013.7 |
| 20260502054715 | 53 | 184 | 0.0 | 0.0 | 0.00 | 0.00 | 0.00 | 80 | 1013.7 |
| 20260502054213 | 53 | 155 | 0.9 | 1.7 | 0.00 | 0.00 | 0.00 | 80 | 1013.7 |
| 20260502053710 | 53 | 161 | 0.0 | 0.0 | 0.00 | 0.00 | 0.00 | 79 | 1014.0 |
| 20260502053207 | 54 | 136 | 0.0 | 0.9 | 0.00 | 0.00 | 0.00 | 79 | 1013.9 |
| 20260502052705 | 54 | 151 | 0.0 | 0.9 | 0.00 | 0.00 | 0.00 | 79 | 1013.9 |
| 20260502052203 | 54 | 152 | 0.0 | 0.0 | 0.00 | 0.00 | 0.00 | 79 | 1014.2 |
| 20260502051701 | 54 | 162 | 0.0 | 0.0 | 0.00 | 0.00 | 0.00 | 78 | 1014.0 |
| 20260502051159 | 54 | 122 | 0.0 | 0.9 | 0.00 | 0.00 | 0.00 | 78 | 1014.3 |
| 20260502050655 | 54 | 149 | 0.0 | 0.9 | 0.00 | 0.00 | 0.00 | 77 | 1014.1 |
| 20260502050151 | 54 | 149 | 0.0 | 0.0 | 0.00 | 0.00 | 0.00 | 77 | 1014.1 |
| 20260502045648 | 54 | 131 | 0.0 | 0.0 | 0.00 | 0.00 | 0.00 | 77 | 1014.2 |
| 20260502045145 | 55 | 136 | 0.9 | 0.9 | 0.00 | 0.00 | 0.00 | 76 | 1014.0 |
| 20260502044636 | 55 | 126 | 0.0 | 0.9 | 0.00 | 0.00 | 0.00 | 76 | 1014.2 |
| 20260502044132 | 55 | 137 | 0.0 | 0.9 | 0.00 | 0.00 | 0.00 | 75 | 1014.2 |
| 20260502043630 | 55 | 288 | 0.9 | 1.7 | 0.00 | 0.00 | 0.00 | 75 | 1014.3 |
| 20260502043127 | 55 | 159 | 0.0 | 0.9 | 0.00 | 0.00 | 0.00 | 75 | 1014.5 |
| 20260502042621 | 55 | 169 | 0.9 | 2.6 | 0.00 | 0.00 | 0.00 | 75 | 1014.3 |
| 20260502042118 | 55 | 156 | 0.0 | 0.9 | 0.00 | 0.00 | 0.00 | 75 | 1014.4 |
| 20260502041616 | 55 | 141 | 0.9 | 0.9 | 0.00 | 0.00 | 0.00 | 74 | 1014.2 |
| 20260502041113 | 55 | 112 | 0.9 | 6.1 | 0.00 | 0.00 | 0.00 | 73 | 1014.4 |
| 20260502040610 | 55 | 159 | 1.7 | 3.5 | 0.00 | 0.00 | 0.00 | 74 | 1014.3 |
| 20260502040107 | 56 | 171 | 0.0 | 0.9 | 0.00 | 0.00 | 0.00 | 74 | 1014.2 |
| 20260502035603 | 56 | 160 | 0.0 | 0.9 | 0.00 | 0.00 | 0.00 | 73 | 1014.1 |
| 20260502035100 | 56 | 133 | 0.0 | 0.9 | 0.00 | 0.00 | 0.00 | 73 | 1014.1 |
| 20260502034558 | 56 | 141 | 0.0 | 0.9 | 0.00 | 0.00 | 0.00 | 72 | 1014.1 |
| 20260502034056 | 56 | 135 | 0.0 | 0.0 | 0.00 | 0.00 | 0.00 | 72 | 1014.2 |
| 20260502033554 | 57 | 141 | 0.0 | 0.9 | 0.00 | 0.00 | 0.00 | 71 | 1014.4 |
| 20260502033051 | 57 | 170 | 0.0 | 0.9 | 0.00 | 0.00 | 0.00 | 71 | 1014.1 |
| 20260502032547 | 57 | 136 | 0.0 | 0.9 | 0.00 | 0.00 | 0.00 | 70 | 1014.3 |
| 20260502032044 | 57 | 161 | 0.0 | 0.9 | 0.00 | 0.00 | 0.00 | 69 | 1013.9 |
| 20260502031542 | 57 | 166 | 0.9 | 2.6 | 0.00 | 0.00 | 0.00 | 69 | 1014.0 |
| 20260502031039 | 57 | 149 | 0.0 | 1.7 | 0.00 | 0.00 | 0.00 | 69 | 1013.9 |
| 20260502030538 | 57 | 161 | 0.0 | 0.9 | 0.00 | 0.00 | 0.00 | 69 | 1013.6 |
| 20260502030035 | 57 | 169 | 0.9 | 1.7 | 0.00 | 0.00 | 0.00 | 67 | 1013.5 |
| 20260502025532 | 58 | 145 | 0.0 | 0.9 | 0.00 | 0.00 | 0.00 | 67 | 1013.5 |
| 20260502025031 | 58 | 159 | 0.9 | 0.9 | 0.00 | 0.00 | 0.00 | 66 | 1013.5 |
| 20260502024527 | 58 | 151 | 0.0 | 0.9 | 0.00 | 0.00 | 0.00 | 66 | 1013.4 |
| 20260502024026 | 58 | 161 | 0.0 | 0.9 | 0.00 | 0.00 | 0.00 | 65 | 1013.8 |
| 20260502023523 | 58 | 122 | 0.9 | 2.6 | 0.00 | 0.00 | 0.00 | 64 | 1013.9 |
| 20260502023020 | 58 | 161 | 0.0 | 1.7 | 0.00 | 0.00 | 0.00 | 64 | 1013.8 |
| 20260502022517 | 58 | 192 | 0.0 | 0.9 | 0.00 | 0.00 | 0.00 | 63 | 1013.7 |
| 20260502022014 | 59 | 132 | 0.0 | 1.7 | 0.00 | 0.00 | 0.00 | 62 | 1014.0 |
| 20260502021512 | 58 | 151 | 0.0 | 2.6 | 0.00 | 0.00 | 0.00 | 62 | 1013.9 |
| 20260502021009 | 58 | 117 | 0.0 | 0.9 | 0.00 | 0.00 | 0.00 | 62 | 1013.7 |
| 20260502020506 | 58 | 117 | 0.9 | 0.9 | 0.00 | 0.00 | 0.00 | 60 | 1013.7 |
| 20260502020003 | 57 | 153 | 0.0 | 7.0 | 0.00 | 0.00 | 0.00 | 61 | 1013.6 |
| 20260502015501 | 57 | 141 | 0.0 | 0.9 | 0.00 | 0.00 | 0.00 | 61 | 1013.6 |
| 20260502014957 | 57 | 150 | 0.0 | 0.0 | 0.00 | 0.00 | 0.00 | 61 | 1013.8 |
| 20260502014454 | 57 | 155 | 0.0 | 0.0 | 0.00 | 0.00 | 0.00 | 60 | 1013.6 |
| 20260502013951 | 58 | 151 | 0.0 | 0.0 | 0.00 | 0.00 | 0.00 | 59 | 1013.6 |
| 20260502013446 | 58 | 153 | 0.0 | 0.0 | 0.00 | 0.00 | 0.00 | 57 | 1013.3 |
| 20260502012943 | 59 | 150 | 0.0 | 0.0 | 0.00 | 0.00 | 0.00 | 56 | 1013.4 |
| 20260502012440 | 58 | 151 | 0.0 | 0.9 | 0.00 | 0.00 | 0.00 | 56 | 1013.5 |
| 20260502011938 | 58 | 151 | 0.0 | 0.0 | 0.00 | 0.00 | 0.00 | 57 | 1013.6 |
| 20260502011434 | 58 | 145 | 0.0 | 0.0 | 0.00 | 0.00 | 0.00 | 56 | 1013.3 |
| 20260502010931 | 59 | 150 | 0.0 | 0.0 | 0.00 | 0.00 | 0.00 | 55 | 1013.2 |
| 20260502010427 | 59 | 149 | 0.0 | 0.0 | 0.00 | 0.00 | 0.00 | 54 | 1013.1 |
| 20260502005924 | 60 | 151 | 0.0 | 0.0 | 0.00 | 0.00 | 0.00 | 53 | 1013.2 |
| 20260502005422 | 60 | 153 | 0.0 | 0.9 | 0.00 | 0.00 | 0.00 | 51 | 1013.1 |
| 20260502004920 | 61 | 134 | 0.0 | 0.0 | 0.00 | 0.00 | 0.00 | 50 | 1012.8 |
| 20260502004415 | 61 | 153 | 0.0 | 1.7 | 0.00 | 0.00 | 0.00 | 49 | 1012.7 |
| 20260502003913 | 61 | 141 | 0.9 | 0.9 | 0.00 | 0.00 | 0.00 | 48 | 1012.7 |
| 20260502003410 | 61 | 136 | 0.0 | 0.9 | 0.00 | 0.00 | 0.00 | 47 | 1012.7 |
| 20260502002906 | 61 | 106 | 0.9 | 0.9 | 0.00 | 0.00 | 0.00 | 46 | 1012.8 |
| 20260502002404 | 62 | 141 | 0.0 | 2.6 | 0.00 | 0.00 | 0.00 | 45 | 1012.8 |
| 20260502001901 | 62 | 161 | 0.0 | 0.9 | 0.00 | 0.00 | 0.00 | 45 | 1012.7 |
| 20260502001358 | 62 | 141 | 0.0 | 1.7 | 0.00 | 0.00 | 0.00 | 44 | 1012.6 |